Tracking 28790 objects as of 19-Apr-2024
HD Live streaming from Space Station
objects crossing your sky now

SL-8 DEB *

Track SL-8 DEB * now!
10-day predictions


NORAD ID: 14809
Int'l Code: 1980-056D
Perigee: 721.1 km
Apogee: 738.0 km
Inclination: 74.0 °
Period: 99.2 minutes
Semi major axis: 7100 km
RCS: 0.0085 m2 (small)
Launch date: July 1, 1980
Source: Commonwealth of Independent States (former USSR) (CIS)
Launch site: PLESETSK MISSILE AND SPACE COMPLEX (PKMTR)

Note: This is SATELLITE DEBRIS
Your satellite tracking list
Your tracking list is empty




NASA's NSSDC Master Catalog

Two Line Element Set (TLE):
1 14809U 80056D   24109.88086972  .00004112  00000-0  10451-2 0  9996
2 14809  74.0347 141.5835 0011888 269.3666 156.6295 14.51002584177650
Source of the keplerian elements: AFSPC